Terminal Aerodrome Forecast
Issued by NWS

Home | Current Version | Previous Version | Text Only | Print | Product List | Glossary On
Versions: 1 2 3 4 5 6 7 8 9 10 11 12 13 14 15 16 17 18 19 20 21 22 23 24 25 26 27 28 29 30 31 32 33 34
170
FTAK31 PANC 282327
TAFACD
TAF
PACD 282327Z 2900/2924 35013KT P6SM SCT018 BKN025
     FM291200 VRB03KT 2SM BR BKN005 OVC012
     FM291900 VRB03KT P6SM FEW005 BKN035=

USA.gov is the U.S. government's official web portal to all federal, state and local government web resources and services.